Location: Aranbee
(34.0885°N, 118.2342°W)
Time: 13:03:55
(UTC+00:00)

Tiros 1 - Pass Details

Date: 04 December 2020
Orbit: 630 x 663 km, 48.4° (Epoch: 21 January)

Event Time Altitude Azimuth Distance (km) Brightness Sun altitude
Rises 01:03:22 0° 311° (NW) 2,992 10.9 -4.6°
Reaches altitude 10° 01:06:34 10° 332° (NNW) 2,076 9.8 -5.2°
Maximum altitude 01:09:34 16° 11° (N) 1,689 9.0 -5.8°
Drops below altitude 10° 01:12:34 10° 50° (NE) 2,064 9.1 -6.3°
Enters shadow 01:13:23 - 58° (ENE) 2,270 9.3 -6.5°
Sets 01:15:44 0° 72° (ENE) 2,968 - -6.9°
